Terug naar catalogus

STARLINK-11114

ActiefCommunicatieVLEO
NORAD 59757·PAYLOAD·🇺🇸 United States

Gelanceerd May 14, 2024 vanaf Vandenberg Space Force Base

Loading…

Volgende Passages (komende 24 uur)

TLE

VersSource: CelesTrak SupGP

Epoch: Sep 15, 2026, 02:53 UTC

1 59757C 24091E   26258.12062500 -.00005543  00000+0 -45652-4 0  2580
2 59757  53.1571 352.5634 0001075  81.4348 299.5367 15.69716538    19

Volg STARLINK-11114 in realtime met AllMySat

Download on the App Store